CCR1023 SBSG-SBCF

Flight info

Callsign CCR1023
Flight time 2h 15m
Altitude 38000
Route SIKEL UZ21 OPTEB
Aircraft B77L/H-SDE1E2E3FGHIJ2J4J5J7M1M3P2RWXYZ/LB1D1

Departure

Time 2026-05-05 01:28
Airport Rio Grande do Norte/São Gonçalo do Amarante–Governador Aluízio Alves International Airport (SBSG)

Arrival

Time 2026-05-05 03:43
Airport Tancredo Neves International Airport (SBCF)
Time Latitude Longitude Altitude Speed Heading
2026-05-05 00:59 -5.76453 -35.36933 286 ft 0 kts
2026-05-05 01:15 -5.76458 -35.36934 287 ft 2 kts
2026-05-05 01:16 -5.76474 -35.36936 287 ft 2 kts
2026-05-05 01:16 -5.76490 -35.36939 287 ft 2 kts
2026-05-05 01:16 -5.76506 -35.36941 287 ft 2 kts
2026-05-05 01:16 -5.76521 -35.36944 287 ft 2 kts
2026-05-05 01:17 -5.76537 -35.36947 287 ft 2 kts
2026-05-05 01:17 -5.76546 -35.36947 287 ft 2 kts 346°
2026-05-05 01:17 -5.76557 -35.36942 287 ft 2 kts 314°
2026-05-05 01:18 -5.76564 -35.36930 287 ft 2 kts 280°
2026-05-05 01:18 -5.76567 -35.36914 287 ft 2 kts 279°
2026-05-05 01:18 -5.76569 -35.36898 287 ft 2 kts 279°
2026-05-05 01:18 -5.76572 -35.36882 287 ft 2 kts 279°
2026-05-05 01:19 -5.76573 -35.36876 287 ft 0 kts 279°
2026-05-05 01:23 -5.76569 -35.36903 287 ft 10 kts 279°
2026-05-05 01:23 -5.76553 -35.36998 287 ft 16 kts 279°
2026-05-05 01:24 -5.76533 -35.37126 287 ft 18 kts 278°
2026-05-05 01:24 -5.76554 -35.37235 287 ft 16 kts 207°
2026-05-05 01:24 -5.76652 -35.37252 287 ft 15 kts 187°
2026-05-05 01:24 -5.76693 -35.37326 287 ft 18 kts 279°
2026-05-05 01:25 -5.76670 -35.37471 287 ft 26 kts 278°
2026-05-05 01:25 -5.76643 -35.37648 287 ft 25 kts 278°
2026-05-05 01:25 -5.76615 -35.37831 287 ft 25 kts 278°
2026-05-05 01:25 -5.76620 -35.37951 287 ft 12 kts 226°
2026-05-05 01:26 -5.76658 -35.37969 287 ft 0 kts 190°
2026-05-05 01:26 -5.76662 -35.37969 287 ft 4 kts 190°
2026-05-05 01:26 -5.76731 -35.37982 287 ft 14 kts 189°
2026-05-05 01:26 -5.76766 -35.37957 287 ft 9 kts 104°
2026-05-05 01:27 -5.76788 -35.37832 287 ft 33 kts 99°
2026-05-05 01:27 -5.76856 -35.37399 287 ft 94 kts 99°
2026-05-05 01:27 -5.76990 -35.36543 287 ft 149 kts 99°
2026-05-05 01:27 -5.77179 -35.35424 573 ft 170 kts 100°
2026-05-05 01:28 -5.77370 -35.34234 1220 ft 172 kts 101°
2026-05-05 01:28 -5.77568 -35.33046 2030 ft 172 kts 103°
2026-05-05 01:28 -5.77845 -35.31902 2952 ft 164 kts 117°
2026-05-05 01:28 -5.78635 -35.31085 3721 ft 167 kts 142°
2026-05-05 01:29 -5.79667 -35.30524 4488 ft 172 kts 147°
2026-05-05 01:29 -5.80780 -35.29939 4992 ft 193 kts 150°
2026-05-05 01:29 -5.82065 -35.29289 5324 ft 218 kts 151°
2026-05-05 01:29 -5.83484 -35.28575 5870 ft 236 kts 151°
2026-05-05 01:30 -5.84989 -35.27816 6580 ft 247 kts 152°
2026-05-05 01:30 -5.86564 -35.27024 7334 ft 259 kts 152°
2026-05-05 01:30 -5.88210 -35.26193 8115 ft 268 kts 153°
2026-05-05 01:30 -5.89957 -35.25482 8890 ft 276 kts 166°
2026-05-05 01:31 -5.91868 -35.25378 9713 ft 282 kts 183°
2026-05-05 01:31 -5.93826 -35.25710 10491 ft 292 kts 192°
2026-05-05 01:31 -5.95858 -35.26271 10965 ft 313 kts 196°
2026-05-05 01:31 -5.97986 -35.26972 11555 ft 331 kts 197°
2026-05-05 01:32 -6.00236 -35.27710 12144 ft 349 kts 196°
2026-05-05 01:32 -6.02629 -35.28451 12673 ft 369 kts 195°
2026-05-05 01:32 -6.05150 -35.29211 13287 ft 385 kts 195°
2026-05-05 01:32 -6.07753 -35.30001 13982 ft 397 kts 196°
2026-05-05 01:33 -6.10410 -35.30876 14742 ft 407 kts 197°
2026-05-05 01:33 -6.13123 -35.31812 15506 ft 414 kts 198°
2026-05-05 01:33 -6.15865 -35.32763 16325 ft 420 kts 198°
2026-05-05 01:33 -6.18646 -35.33718 17083 ft 426 kts 198°
2026-05-05 01:34 -6.21479 -35.34685 17829 ft 431 kts 198°
2026-05-05 01:34 -6.24341 -35.35650 18541 ft 436 kts 196°
2026-05-05 01:34 -6.27296 -35.36379 19217 ft 439 kts 189°
2026-05-05 01:34 -6.30346 -35.36817 19870 ft 443 kts 185°
2026-05-05 01:35 -6.33432 -35.37123 20529 ft 447 kts 184°
2026-05-05 01:35 -6.36544 -35.37329 21153 ft 451 kts 182°
2026-05-05 01:35 -6.39693 -35.37461 21756 ft 454 kts 181°
2026-05-05 01:35 -6.42825 -35.37559 22330 ft 458 kts 180°
2026-05-05 01:36 -6.46023 -35.37660 22891 ft 461 kts 181°
2026-05-05 01:36 -6.49242 -35.37765 23434 ft 465 kts 181°
2026-05-05 01:36 -6.52497 -35.37874 23959 ft 468 kts 181°
2026-05-05 01:36 -6.55766 -35.37984 24462 ft 472 kts 181°
2026-05-05 01:37 -6.59053 -35.38096 24948 ft 475 kts 181°
2026-05-05 01:37 -6.62375 -35.38209 25416 ft 478 kts 181°
2026-05-05 01:37 -6.65706 -35.38322 25916 ft 480 kts 181°
2026-05-05 01:37 -6.69061 -35.38436 26406 ft 482 kts 181°
2026-05-05 01:38 -6.72418 -35.38551 26897 ft 484 kts 181°
2026-05-05 01:38 -6.75792 -35.38666 27370 ft 486 kts 181°
2026-05-05 01:38 -6.79179 -35.38782 27805 ft 488 kts 181°
2026-05-05 01:38 -6.82592 -35.38898 28248 ft 490 kts 181°
2026-05-05 01:39 -6.86003 -35.39015 28679 ft 492 kts 181°
2026-05-05 01:39 -6.89431 -35.39132 29084 ft 494 kts 181°
2026-05-05 01:39 -6.92837 -35.39248 29436 ft 496 kts 181°
2026-05-05 01:39 -6.96288 -35.39395 29748 ft 499 kts 183°
2026-05-05 01:40 -6.99762 -35.39699 30079 ft 502 kts 185°
2026-05-05 01:40 -7.03230 -35.40116 30466 ft 502 kts 187°
2026-05-05 01:40 -7.06688 -35.40591 30953 ft 500 kts 187°
2026-05-05 01:40 -7.10137 -35.41058 31430 ft 498 kts 187°
2026-05-05 01:41 -7.13571 -35.41498 31880 ft 498 kts 187°
2026-05-05 01:41 -7.17009 -35.41922 32308 ft 497 kts 187°
2026-05-05 01:41 -7.20443 -35.42338 32746 ft 496 kts 187°
2026-05-05 01:41 -7.23868 -35.42750 33210 ft 495 kts 187°
2026-05-05 01:42 -7.27282 -35.43160 33680 ft 494 kts 187°
2026-05-05 01:42 -7.30704 -35.43571 34158 ft 493 kts 187°
2026-05-05 01:42 -7.34111 -35.43979 34600 ft 492 kts 187°
2026-05-05 01:42 -7.37479 -35.44383 35069 ft 491 kts 187°
2026-05-05 01:43 -7.40864 -35.44789 35530 ft 490 kts 187°
2026-05-05 01:43 -7.44246 -35.45195 36012 ft 489 kts 187°
2026-05-05 01:43 -7.47620 -35.45600 36497 ft 487 kts 187°
2026-05-05 01:43 -7.50979 -35.46003 36953 ft 486 kts 187°
2026-05-05 01:44 -7.54342 -35.46407 37416 ft 485 kts 187°
2026-05-05 01:44 -7.57691 -35.46809 37879 ft 484 kts 187°
2026-05-05 01:44 -7.61035 -35.47220 38083 ft 484 kts 189°
2026-05-05 01:44 -7.64312 -35.47925 38094 ft 481 kts 197°
2026-05-05 01:45 -7.70567 -35.50265 38101 ft 479 kts 203°
2026-05-05 01:45 -7.76689 -35.52963 38085 ft 479 kts 204°
2026-05-05 01:46 -7.82813 -35.55633 38083 ft 479 kts 204°
2026-05-05 01:46 -7.88950 -35.58278 38088 ft 479 kts 204°
2026-05-05 01:47 -7.95119 -35.60928 38077 ft 484 kts 203°
2026-05-05 01:47 -8.01284 -35.63569 38090 ft 484 kts 203°
2026-05-05 01:48 -8.07488 -35.66229 38096 ft 484 kts 203°
2026-05-05 01:48 -8.13702 -35.68895 38085 ft 484 kts 203°
2026-05-05 01:49 -8.19891 -35.71551 38087 ft 484 kts 203°
2026-05-05 01:49 -8.26099 -35.74217 38088 ft 484 kts 203°
2026-05-05 01:50 -8.32289 -35.76875 38084 ft 483 kts 203°
2026-05-05 01:50 -8.37429 -35.79083 38086 ft 483 kts 203°
2026-05-05 01:51 -8.44623 -35.82175 38085 ft 483 kts 204°
2026-05-05 01:51 -8.50812 -35.84836 38081 ft 485 kts 204°
2026-05-05 01:52 -8.55982 -35.87059 38088 ft 484 kts 203°
2026-05-05 01:52 -8.62167 -35.89718 38089 ft 483 kts 204°
2026-05-05 01:53 -8.68350 -35.92380 38085 ft 483 kts 204°
2026-05-05 01:53 -8.74532 -35.95043 38086 ft 483 kts 204°
2026-05-05 01:54 -8.80718 -35.97708 38085 ft 483 kts 204°
2026-05-05 01:54 -8.86773 -36.00645 38084 ft 482 kts 212°
2026-05-05 01:55 -8.92294 -36.04488 38083 ft 482 kts 216°
2026-05-05 01:55 -8.97724 -36.08399 38084 ft 482 kts 215°
2026-05-05 01:56 -9.03223 -36.12264 38084 ft 482 kts 215°
2026-05-05 01:56 -9.08737 -36.16154 38085 ft 482 kts 215°
2026-05-05 01:57 -9.14222 -36.20032 38084 ft 482 kts 215°
2026-05-05 01:57 -9.19726 -36.23926 38081 ft 481 kts 215°
2026-05-05 01:58 -9.25213 -36.27809 38081 ft 481 kts 215°
2026-05-05 01:58 -9.30700 -36.31694 38082 ft 481 kts 215°
2026-05-05 01:59 -9.36158 -36.35553 38084 ft 481 kts 215°
2026-05-05 01:59 -9.41653 -36.39441 38085 ft 481 kts 215°
2026-05-05 02:00 -9.47141 -36.43323 38086 ft 481 kts 215°
2026-05-05 02:00 -9.52631 -36.47216 38085 ft 481 kts 215°
2026-05-05 02:01 -9.58109 -36.51103 38085 ft 481 kts 215°
2026-05-05 02:01 -9.63591 -36.54993 38086 ft 481 kts 215°
2026-05-05 02:02 -9.69050 -36.58868 38087 ft 481 kts 215°
2026-05-05 02:02 -9.74524 -36.62765 38087 ft 481 kts 215°
2026-05-05 02:03 -9.79993 -36.66668 38088 ft 481 kts 215°
2026-05-05 02:03 -9.85474 -36.70582 38088 ft 481 kts 215°
2026-05-05 02:04 -9.90939 -36.74482 38087 ft 481 kts 215°
2026-05-05 02:04 -9.96406 -36.78388 38088 ft 480 kts 215°
2026-05-05 02:05 -10.01835 -36.82272 38090 ft 480 kts 215°
2026-05-05 02:05 -10.07291 -36.86178 38088 ft 480 kts 215°
2026-05-05 02:06 -10.12748 -36.90087 38089 ft 480 kts 215°
2026-05-05 02:06 -10.18210 -36.94002 38088 ft 480 kts 215°
2026-05-05 02:07 -10.23673 -36.97909 38086 ft 480 kts 215°
2026-05-05 02:07 -10.29133 -37.01818 38086 ft 480 kts 215°
2026-05-05 02:08 -10.34567 -37.05713 38088 ft 480 kts 215°
2026-05-05 02:08 -10.40028 -37.09630 38087 ft 480 kts 215°
2026-05-05 02:09 -10.45481 -37.13543 38086 ft 480 kts 215°
2026-05-05 02:09 -10.50927 -37.17453 38085 ft 480 kts 215°
2026-05-05 02:10 -10.56388 -37.21375 38084 ft 480 kts 215°
2026-05-05 02:10 -10.61809 -37.25270 38084 ft 480 kts 215°
2026-05-05 02:11 -10.67264 -37.29192 38088 ft 480 kts 215°
2026-05-05 02:11 -10.72724 -37.33119 38088 ft 480 kts 215°
2026-05-05 02:12 -10.80902 -37.39004 38084 ft 480 kts 215°
2026-05-05 02:13 -10.86353 -37.42929 38087 ft 480 kts 215°
2026-05-05 02:13 -10.91811 -37.46861 38084 ft 480 kts 215°
2026-05-05 02:14 -10.97221 -37.50760 38086 ft 480 kts 215°
2026-05-05 02:14 -11.02678 -37.54694 38105 ft 481 kts 215°
2026-05-05 02:15 -11.08148 -37.58640 38104 ft 483 kts 215°
2026-05-05 02:15 -11.13624 -37.62593 38100 ft 482 kts 215°
2026-05-05 02:16 -11.19090 -37.66540 38100 ft 481 kts 216°
2026-05-05 02:16 -11.24560 -37.70485 38098 ft 481 kts 215°
2026-05-05 02:17 -11.30021 -37.74432 38087 ft 480 kts 216°
2026-05-05 02:17 -11.35473 -37.78378 38090 ft 480 kts 216°
2026-05-05 02:18 -11.40893 -37.82302 38089 ft 480 kts 216°
2026-05-05 02:18 -11.46342 -37.86246 38086 ft 480 kts 216°
2026-05-05 02:19 -11.51775 -37.90197 38086 ft 480 kts 216°
2026-05-05 02:19 -11.57218 -37.94163 38089 ft 480 kts 216°
2026-05-05 02:20 -11.62643 -37.98118 38097 ft 478 kts 216°
2026-05-05 02:20 -11.68008 -38.02032 38098 ft 477 kts 216°
2026-05-05 02:21 -11.73412 -38.05976 38099 ft 477 kts 216°
2026-05-05 02:21 -11.78831 -38.09922 38101 ft 477 kts 216°
2026-05-05 02:22 -11.84227 -38.13856 38102 ft 477 kts 216°
2026-05-05 02:22 -11.89630 -38.17801 38102 ft 477 kts 216°
2026-05-05 02:23 -11.95036 -38.21751 38103 ft 477 kts 216°
2026-05-05 02:23 -12.00437 -38.25699 38105 ft 477 kts 216°
2026-05-05 02:24 -12.05840 -38.29651 38105 ft 477 kts 216°
2026-05-05 02:24 -12.11205 -38.33577 38106 ft 477 kts 216°
2026-05-05 02:25 -12.16601 -38.37528 38107 ft 477 kts 216°
2026-05-05 02:25 -12.21999 -38.41482 38107 ft 477 kts 216°
2026-05-05 02:26 -12.27394 -38.45436 38107 ft 477 kts 216°
2026-05-05 02:26 -12.32788 -38.49392 38108 ft 477 kts 217°
2026-05-05 02:27 -12.38183 -38.53350 38108 ft 477 kts 217°
2026-05-05 02:27 -12.43573 -38.57306 38109 ft 477 kts 217°
2026-05-05 02:28 -12.48928 -38.61235 38109 ft 477 kts 217°
2026-05-05 02:28 -12.54323 -38.65196 38110 ft 477 kts 217°
2026-05-05 02:29 -12.59710 -38.69160 38109 ft 477 kts 217°
2026-05-05 02:29 -12.65102 -38.73129 38108 ft 477 kts 217°
2026-05-05 02:30 -12.70493 -38.77099 38109 ft 477 kts 217°
2026-05-05 02:30 -12.75848 -38.81044 38109 ft 477 kts 217°
2026-05-05 02:31 -12.81232 -38.85018 38109 ft 477 kts 217°
2026-05-05 02:31 -12.86616 -38.88995 38110 ft 477 kts 217°
2026-05-05 02:32 -12.91991 -38.92974 38108 ft 477 kts 217°
2026-05-05 02:32 -12.97367 -38.96959 38107 ft 477 kts 217°
2026-05-05 02:33 -13.02743 -39.00948 38107 ft 477 kts 217°
2026-05-05 02:33 -13.08095 -39.04920 38106 ft 477 kts 217°
2026-05-05 02:34 -13.13464 -39.08907 38105 ft 477 kts 217°
2026-05-05 02:34 -13.18844 -39.12892 38115 ft 476 kts 217°
2026-05-05 02:35 -13.24205 -39.16865 38133 ft 474 kts 217°
2026-05-05 02:35 -13.29541 -39.20833 38137 ft 474 kts 217°
2026-05-05 02:36 -13.34890 -39.24815 38138 ft 474 kts 217°
2026-05-05 02:36 -13.40225 -39.28789 38143 ft 474 kts 218°
2026-05-05 02:37 -13.45565 -39.32766 38144 ft 474 kts 218°
2026-05-05 02:37 -13.50861 -39.36730 38147 ft 474 kts 218°
2026-05-05 02:38 -13.56191 -39.40725 38151 ft 474 kts 218°
2026-05-05 02:38 -13.61518 -39.44721 38153 ft 474 kts 218°
2026-05-05 02:39 -13.66846 -39.48720 38155 ft 474 kts 218°
2026-05-05 02:39 -13.72178 -39.52724 38159 ft 474 kts 218°
2026-05-05 02:40 -13.77502 -39.56712 38160 ft 473 kts 218°
2026-05-05 02:40 -13.81922 -39.60028 38162 ft 473 kts 218°
2026-05-05 02:41 -13.87254 -39.64033 38164 ft 474 kts 218°
2026-05-05 02:41 -13.92582 -39.68039 38166 ft 474 kts 218°
2026-05-05 02:42 -13.97870 -39.72018 38167 ft 474 kts 218°
2026-05-05 02:42 -14.03194 -39.76026 38169 ft 474 kts 218°
2026-05-05 02:43 -14.08512 -39.80032 38171 ft 474 kts 218°
2026-05-05 02:43 -14.13842 -39.84049 38171 ft 473 kts 219°
2026-05-05 02:44 -14.19156 -39.88058 38176 ft 475 kts 218°
2026-05-05 02:44 -14.24494 -39.92085 38176 ft 475 kts 218°
2026-05-05 02:45 -14.29824 -39.96110 38177 ft 475 kts 218°
2026-05-05 02:45 -14.35158 -40.00134 38180 ft 475 kts 218°
2026-05-05 02:46 -14.40498 -40.04169 38182 ft 475 kts 219°
2026-05-05 02:46 -14.45803 -40.08185 38184 ft 475 kts 219°
2026-05-05 02:47 -14.51139 -40.12228 38188 ft 477 kts 218°
2026-05-05 02:47 -14.56490 -40.16283 38190 ft 478 kts 218°
2026-05-05 02:48 -14.61849 -40.20344 38190 ft 477 kts 219°
2026-05-05 02:48 -14.67206 -40.24408 38191 ft 477 kts 219°
2026-05-05 02:49 -14.72555 -40.28471 38193 ft 478 kts 218°
2026-05-05 02:49 -14.77883 -40.32522 38195 ft 478 kts 218°
2026-05-05 02:50 -14.83247 -40.36602 38196 ft 480 kts 218°
2026-05-05 02:50 -14.88638 -40.40700 38197 ft 480 kts 218°
2026-05-05 02:51 -14.94023 -40.44787 38197 ft 480 kts 218°
2026-05-05 02:51 -14.99408 -40.48883 38196 ft 479 kts 218°
2026-05-05 02:52 -15.04749 -40.52951 38197 ft 480 kts 218°
2026-05-05 02:52 -15.10126 -40.57050 38199 ft 481 kts 218°
2026-05-05 02:53 -15.15517 -40.61161 38198 ft 481 kts 218°
2026-05-05 02:53 -15.20899 -40.65269 38198 ft 480 kts 218°
2026-05-05 02:54 -15.26279 -40.69379 38198 ft 480 kts 218°
2026-05-05 02:54 -15.31655 -40.73487 38195 ft 480 kts 218°
2026-05-05 02:55 -15.37024 -40.77593 38195 ft 479 kts 218°
2026-05-05 02:55 -15.42363 -40.81679 38197 ft 480 kts 218°
2026-05-05 02:56 -15.47737 -40.85795 38197 ft 480 kts 218°
2026-05-05 02:56 -15.53100 -40.89904 38195 ft 479 kts 219°
2026-05-05 02:57 -15.58458 -40.94013 38194 ft 479 kts 219°
2026-05-05 02:57 -15.63817 -40.98125 38194 ft 479 kts 219°
2026-05-05 02:58 -15.69173 -41.02238 38192 ft 478 kts 219°
2026-05-05 02:58 -15.74530 -41.06345 38193 ft 479 kts 219°
2026-05-05 02:59 -15.79880 -41.10457 38193 ft 478 kts 219°
2026-05-05 02:59 -15.85227 -41.14575 38191 ft 478 kts 219°
2026-05-05 03:00 -15.90532 -41.18664 38190 ft 478 kts 219°
2026-05-05 03:00 -15.95871 -41.22779 38191 ft 478 kts 219°
2026-05-05 03:01 -16.01218 -41.26899 38190 ft 478 kts 219°
2026-05-05 03:01 -16.06561 -41.31022 38190 ft 478 kts 219°
2026-05-05 03:02 -16.11892 -41.35140 38189 ft 477 kts 219°
2026-05-05 03:02 -16.17235 -41.39271 38188 ft 477 kts 219°
2026-05-05 03:03 -16.22528 -41.43366 38187 ft 477 kts 219°
2026-05-05 03:03 -16.27893 -41.47508 38187 ft 477 kts 219°
2026-05-05 03:04 -16.33192 -41.51601 38187 ft 476 kts 219°
2026-05-05 03:04 -16.38515 -41.55721 38186 ft 476 kts 219°
2026-05-05 03:05 -16.43823 -41.59834 38210 ft 474 kts 219°
2026-05-05 03:05 -16.49104 -41.63930 38213 ft 472 kts 219°
2026-05-05 03:06 -16.54347 -41.67999 38212 ft 472 kts 219°
2026-05-05 03:06 -16.59614 -41.72089 38212 ft 472 kts 219°
2026-05-05 03:07 -16.64884 -41.76176 38219 ft 471 kts 219°
2026-05-05 03:07 -16.70137 -41.80259 38219 ft 470 kts 219°
2026-05-05 03:08 -16.75379 -41.84343 38219 ft 470 kts 219°
2026-05-05 03:08 -16.80623 -41.88432 38220 ft 470 kts 219°
2026-05-05 03:09 -16.85861 -41.92515 38221 ft 469 kts 219°
2026-05-05 03:09 -16.91060 -41.96571 38223 ft 469 kts 219°
2026-05-05 03:10 -16.96288 -42.00655 38224 ft 468 kts 219°
2026-05-05 03:10 -17.01499 -42.04731 38227 ft 468 kts 219°
2026-05-05 03:11 -17.06704 -42.08806 38225 ft 468 kts 219°
2026-05-05 03:11 -17.11920 -42.12894 38225 ft 468 kts 219°
2026-05-05 03:12 -17.17129 -42.16970 38231 ft 467 kts 219°
2026-05-05 03:12 -17.22325 -42.21030 38243 ft 465 kts 219°
2026-05-05 03:13 -17.27508 -42.25091 38243 ft 464 kts 219°
2026-05-05 03:13 -17.32680 -42.29148 38247 ft 464 kts 219°
2026-05-05 03:14 -17.37810 -42.33176 38253 ft 462 kts 219°
2026-05-05 03:14 -17.42941 -42.37208 38256 ft 460 kts 219°
2026-05-05 03:15 -17.48054 -42.41229 38257 ft 459 kts 219°
2026-05-05 03:15 -17.53158 -42.45247 38260 ft 459 kts 219°
2026-05-05 03:16 -17.58267 -42.49270 38260 ft 459 kts 219°
2026-05-05 03:16 -17.63339 -42.53267 38260 ft 459 kts 219°
2026-05-05 03:17 -17.68441 -42.57292 38260 ft 459 kts 219°
2026-05-05 03:17 -17.73548 -42.61323 38260 ft 459 kts 219°
2026-05-05 03:18 -17.78654 -42.65356 38260 ft 459 kts 219°
2026-05-05 03:18 -17.83760 -42.69392 38260 ft 459 kts 219°
2026-05-05 03:19 -17.91239 -42.75309 38257 ft 432 kts 220°
2026-05-05 03:19 -17.95967 -42.79054 38096 ft 431 kts 219°
2026-05-05 03:20 -17.98400 -42.80982 37622 ft 442 kts 219°
2026-05-05 03:20 -18.00886 -42.82952 36926 ft 451 kts 219°
2026-05-05 03:20 -18.03395 -42.84941 36241 ft 451 kts 219°
2026-05-05 03:20 -18.05902 -42.86930 35599 ft 450 kts 219°
2026-05-05 03:21 -18.08395 -42.88908 35025 ft 449 kts 219°
2026-05-05 03:21 -18.10882 -42.90882 34490 ft 447 kts 218°
2026-05-05 03:21 -18.13358 -42.92847 33983 ft 444 kts 218°
2026-05-05 03:21 -18.15820 -42.94794 33490 ft 442 kts 218°
2026-05-05 03:22 -18.18262 -42.96731 33008 ft 439 kts 218°
2026-05-05 03:22 -18.20686 -42.98659 32537 ft 436 kts 218°
2026-05-05 03:22 -18.23099 -43.00579 32073 ft 433 kts 218°
2026-05-05 03:22 -18.25462 -43.02461 31621 ft 430 kts 218°
2026-05-05 03:23 -18.27833 -43.04350 31168 ft 426 kts 218°
2026-05-05 03:23 -18.30190 -43.06229 30713 ft 423 kts 218°
2026-05-05 03:23 -18.32534 -43.08097 30257 ft 421 kts 218°
2026-05-05 03:23 -18.34861 -43.09952 29783 ft 418 kts 218°
2026-05-05 03:24 -18.37177 -43.11797 29286 ft 416 kts 218°
2026-05-05 03:24 -18.39474 -43.13627 28782 ft 413 kts 217°
2026-05-05 03:24 -18.41769 -43.15443 28280 ft 411 kts 217°
2026-05-05 03:24 -18.44053 -43.17251 27781 ft 409 kts 217°
2026-05-05 03:25 -18.46318 -43.19044 27291 ft 407 kts 218°
2026-05-05 03:25 -18.48577 -43.20836 26807 ft 405 kts 218°
2026-05-05 03:25 -18.50823 -43.22618 26322 ft 403 kts 218°
2026-05-05 03:25 -18.53058 -43.24392 25839 ft 401 kts 218°
2026-05-05 03:26 -18.55253 -43.26135 25365 ft 399 kts 218°
2026-05-05 03:26 -18.57464 -43.27891 24886 ft 397 kts 218°
2026-05-05 03:26 -18.59661 -43.29637 24409 ft 395 kts 218°
2026-05-05 03:26 -18.61852 -43.31378 23933 ft 393 kts 217°
2026-05-05 03:27 -18.64030 -43.33109 23458 ft 391 kts 217°
2026-05-05 03:27 -18.66203 -43.34836 22985 ft 389 kts 217°
2026-05-05 03:27 -18.68361 -43.36544 22514 ft 388 kts 217°
2026-05-05 03:27 -18.69789 -43.37675 22202 ft 387 kts 217°
2026-05-05 03:28 -18.71932 -43.39375 21730 ft 385 kts 217°
2026-05-05 03:28 -18.74074 -43.41077 21261 ft 383 kts 217°
2026-05-05 03:28 -18.76203 -43.42766 20795 ft 382 kts 217°
2026-05-05 03:28 -18.78323 -43.44446 20330 ft 380 kts 217°
2026-05-05 03:29 -18.80412 -43.46106 19872 ft 378 kts 217°
2026-05-05 03:29 -18.82533 -43.47796 19407 ft 376 kts 217°
2026-05-05 03:29 -18.84591 -43.49437 18954 ft 375 kts 217°
2026-05-05 03:29 -18.86667 -43.51093 18499 ft 373 kts 217°
2026-05-05 03:30 -18.88757 -43.52761 18039 ft 371 kts 217°
2026-05-05 03:30 -18.90787 -43.54382 17590 ft 369 kts 217°
2026-05-05 03:30 -18.92835 -43.56018 17139 ft 368 kts 217°
2026-05-05 03:30 -18.94870 -43.57643 16690 ft 366 kts 217°
2026-05-05 03:31 -18.96893 -43.59259 16245 ft 364 kts 217°
2026-05-05 03:31 -18.98916 -43.60874 15801 ft 362 kts 217°
2026-05-05 03:31 -19.00918 -43.62473 15506 ft 358 kts 217°
2026-05-05 03:31 -19.02923 -43.64042 15186 ft 360 kts 217°
2026-05-05 03:32 -19.04952 -43.65637 14630 ft 364 kts 217°
2026-05-05 03:32 -19.06970 -43.67225 14285 ft 359 kts 217°
2026-05-05 03:32 -19.08958 -43.68792 13934 ft 355 kts 217°
2026-05-05 03:32 -19.10925 -43.70344 13579 ft 351 kts 217°
2026-05-05 03:33 -19.12847 -43.71861 13234 ft 347 kts 217°
2026-05-05 03:33 -19.14775 -43.73382 12890 ft 344 kts 216°
2026-05-05 03:33 -19.16684 -43.74890 12548 ft 340 kts 216°
2026-05-05 03:33 -19.18571 -43.76380 12212 ft 337 kts 216°
2026-05-05 03:34 -19.20438 -43.77854 11880 ft 334 kts 216°
2026-05-05 03:34 -19.22290 -43.79316 11549 ft 331 kts 216°
2026-05-05 03:34 -19.24128 -43.80767 11224 ft 328 kts 216°
2026-05-05 03:34 -19.25899 -43.82262 10900 ft 325 kts 221°
2026-05-05 03:35 -19.27530 -43.83902 10581 ft 322 kts 224°
2026-05-05 03:35 -19.29078 -43.85601 10262 ft 320 kts 226°
2026-05-05 03:35 -19.30585 -43.87326 9944 ft 317 kts 227°
2026-05-05 03:35 -19.32079 -43.89032 9631 ft 315 kts 226°
2026-05-05 03:36 -19.33567 -43.90716 9319 ft 313 kts 226°
2026-05-05 03:36 -19.35051 -43.92387 9010 ft 310 kts 226°
2026-05-05 03:36 -19.36530 -43.94048 8702 ft 308 kts 226°
2026-05-05 03:36 -19.37998 -43.95697 8397 ft 306 kts 226°
2026-05-05 03:37 -19.39454 -43.97332 8104 ft 303 kts 226°
2026-05-05 03:37 -19.40895 -43.98948 7802 ft 301 kts 225°
2026-05-05 03:37 -19.42325 -44.00552 7500 ft 298 kts 225°
2026-05-05 03:37 -19.43667 -44.02197 7332 ft 291 kts 233°
2026-05-05 03:38 -19.44413 -44.04135 7288 ft 280 kts 257°
2026-05-05 03:38 -19.44363 -44.06141 7284 ft 269 kts 279°
2026-05-05 03:38 -19.44023 -44.08008 7276 ft 256 kts 271°
2026-05-05 03:38 -19.44374 -44.09825 6949 ft 253 kts 243°
2026-05-05 03:39 -19.45531 -44.11191 6502 ft 251 kts 213°
2026-05-05 03:39 -19.47152 -44.11711 6222 ft 241 kts 181°
2026-05-05 03:39 -19.48706 -44.11241 6167 ft 229 kts 149°
2026-05-05 03:39 -19.49853 -44.10084 6044 ft 231 kts 131°
2026-05-05 03:40 -19.50939 -44.08798 5705 ft 236 kts 132°
2026-05-05 03:40 -19.52077 -44.07537 5403 ft 237 kts 133°
2026-05-05 03:40 -19.53226 -44.06291 5076 ft 231 kts 135°
2026-05-05 03:40 -19.54372 -44.05180 4771 ft 215 kts 137°
2026-05-05 03:41 -19.55460 -44.04185 4486 ft 198 kts 138°
2026-05-05 03:41 -19.56457 -44.03268 4229 ft 182 kts 137°
2026-05-05 03:41 -19.57368 -44.02427 3994 ft 166 kts 137°
2026-05-05 03:41 -19.58201 -44.01638 3675 ft 156 kts 136°
2026-05-05 03:42 -19.59001 -44.00891 3310 ft 152 kts 138°
2026-05-05 03:42 -19.59807 -44.00177 3128 ft 150 kts 137°
2026-05-05 03:42 -19.60625 -43.99392 3134 ft 169 kts 136°
2026-05-05 03:42 -19.61507 -43.98584 3017 ft 163 kts 138°
2026-05-05 03:43 -19.62351 -43.97822 2797 ft 152 kts 137°
2026-05-05 03:43 -19.63062 -43.97166 2729 ft 120 kts 136°
2026-05-05 03:43 -19.63497 -43.96759 2729 ft 46 kts 135°
2026-05-05 03:43 -19.63602 -43.96546 2729 ft 28 kts 110°
2026-05-05 03:44 -19.63668 -43.96380 2729 ft 21 kts 129°
2026-05-05 03:44 -19.63763 -43.96289 2729 ft 19 kts 139°
2026-05-05 03:44 -19.63874 -43.96184 2729 ft 24 kts 138°
2026-05-05 03:44 -19.64000 -43.96072 2729 ft 20 kts 140°
2026-05-05 03:45 -19.64083 -43.95990 2729 ft 12 kts 118°
2026-05-05 03:45 -19.64071 -43.95926 2729 ft 7 kts 54°
2026-05-05 03:45 -19.64046 -43.95893 2729 ft 4 kts 51°
2026-05-05 03:45 -19.64036 -43.95881 2729 ft 2 kts 50°
2026-05-05 03:46 -19.64018 -43.95860 2729 ft 1 kts 49°
2026-05-05 03:46 -19.64018 -43.95859 2729 ft 0 kts 49°